sat.trackr.live / text

‹ back to catalog

STARLINK-32737

NORAD 62444 · 2024-251N

PAYLOAD ACTIVE UNKNOWN

§ Identity

Operator
Country
US
Launch date
2024-12-29
Launch site
AFWTR
Launch vehicle
Mass (kg)
RCS (m²)

Purposes: comms

External: N2YO · Heavens-Above · Gunter

§ Orbital elements

Epoch: 2026-05-24T19:12:06.455808Z

Period
94.10 min
Inclination
53.1612°
Eccentricity
0.0000286
Mean motion
15.30234700 rev/d
Perigee alt
474.9 km
Apogee alt
475.3 km
Semi-major
6,853.2 km
B*
1.6891e-3
RAAN
339.4764°
Arg perigee
40.9476°
Mean anomaly
319.1547°
Rev number
7,963

§ Raw data

STARLINK-327371 62444U 24251N   26144.80007472  .00050058  00000+0  16891-2 0  99932 62444  53.1612 339.4764 0000286  40.9476 319.1547 15.30234700 79632

JSON: /api/v1/satellites/62444 · /tle

For live sub-satellite position, see the globe view (requires WebGL).

§ Visibility from observer

Set your observer location to see the next 7 days of passes ≥ 10°. The values pass through the URL so the page stays shareable.

No JS? Fill the form by hand. The geolocation button needs JavaScript.